User: anonymous   Login
Location: Kapla
(46.2483°N, 15.0094°E)
Time: 01:54:09
(UTC+00:00)
Language:

Cosmos 1666 Rocket - Orbit

View from above orbital plane
View from above orbital plane
View from above satellite
View from above satellite

Ground track
Ground track

The orbit data is extracted from the following two-line orbital elements,

1 15890U 85058B   21125.13907046  .00000075  00000-0  62224-5 0  9993
2 15890  82.5293  13.6183 0019756 222.4059 290.5629 14.83473094913951
Epoch (UTC): 05 May 2021 03:20:15
Eccentricity: 0.0019756
inclination: 82.5293°
perigee height: 604 km
apogee height: 632 km
right ascension of ascending node: 13.6183°
argument of perigee: 222.4059°
revolutions per day: 14.83473094
mean anomaly at epoch: 290.5629°
orbit number at epoch: 91395

The dashed part of the orbit path shows where the satellite is in the earth's shadow,  

DLR